User: anonymous   Login
Location: Moscow
(55.7500°N, 37.5830°E)
Time: 17:07:59
(UTC+03:00)
Language:

COSMOS 2251 DEB - Orbit

View from above orbital plane
View from above orbital plane
View from above satellite
View from above satellite

Ground track
Ground track

The orbit data is extracted from the following two-line orbital elements,

1 33933U 93036EN  22278.38474343  .00000928  00000-0  35926-3 0  9996
2 33933  74.0930  15.4252 0077635 322.8157  36.7630 14.29781603711231
Epoch (UTC): 05 October 2022 09:14:01
Eccentricity: 0.0077635
inclination: 74.0930°
perigee height: 737 km
apogee height: 848 km
right ascension of ascending node: 15.4252°
argument of perigee: 322.8157°
revolutions per day: 14.29781603
mean anomaly at epoch: 36.7630°
orbit number at epoch: 71123

The dashed part of the orbit path shows where the satellite is in the earth's shadow,  

DLR